RYR20UU EHEH-LIRP

Flight info

Callsign RYR20UU
Flight time 1h 20m
Altitude 35000
Route LNO Z283 RITAX UT27 ROUSY DCT GTQ DCT POGOL DCT LASAT DCT DEVDI DCT RIPUS DCT GERSA DCT SOSON DCT ODINA DCT SRN DCT OSBUL DCT EKPAL DCT MIVKI
Aircraft B738/M-SDE2E3FGHIRWXY/LB1

Departure

Time 2026-04-22 14:09
Airport Eindhoven Airport (EHEH)

Arrival

Time 2026-04-22 15:29
Airport Pisa International Airport (LIRP)
Time Latitude Longitude Altitude Speed Heading
2026-04-22 13:37 51.45825 5.39005 67 ft 0 kts 126°
2026-04-22 13:59 51.45829 5.38998 75 ft 4 kts 126°
2026-04-22 13:59 51.45844 5.38963 64 ft 4 kts 126°
2026-04-22 14:00 51.45860 5.38927 75 ft 4 kts 126°
2026-04-22 14:00 51.45872 5.38901 63 ft 0 kts 126°
2026-04-22 14:03 51.45871 5.38902 63 ft 0 kts 134°
2026-04-22 14:03 51.45861 5.38901 63 ft 4 kts 191°
2026-04-22 14:03 51.45815 5.38859 72 ft 12 kts 213°
2026-04-22 14:03 51.45800 5.38770 66 ft 9 kts 300°
2026-04-22 14:04 51.45843 5.38662 72 ft 13 kts 304°
2026-04-22 14:04 51.45901 5.38530 69 ft 16 kts 305°
2026-04-22 14:04 51.45973 5.38372 77 ft 18 kts 307°
2026-04-22 14:04 51.45955 5.38226 75 ft 16 kts 211°
2026-04-22 14:05 51.45890 5.38153 72 ft 19 kts 215°
2026-04-22 14:05 51.45718 5.37962 71 ft 26 kts 215°
2026-04-22 14:05 51.45419 5.37627 81 ft 26 kts 214°
2026-04-22 14:06 51.45318 5.37513 75 ft 27 kts 215°
2026-04-22 14:06 51.45102 5.37272 71 ft 25 kts 215°
2026-04-22 14:06 51.45007 5.37165 80 ft 24 kts 215°
2026-04-22 14:06 51.44874 5.37016 87 ft 23 kts 215°
2026-04-22 14:07 51.44675 5.36793 82 ft 30 kts 215°
2026-04-22 14:07 51.44552 5.36655 70 ft 33 kts 215°
2026-04-22 14:07 51.44370 5.36452 70 ft 31 kts 214°
2026-04-22 14:07 51.44202 5.36263 83 ft 29 kts 215°
2026-04-22 14:08 51.44058 5.36100 82 ft 18 kts 214°
2026-04-22 14:08 51.43955 5.36143 71 ft 17 kts 125°
2026-04-22 14:08 51.43985 5.36303 82 ft 18 kts 35°
2026-04-22 14:08 51.44214 5.36559 80 ft 71 kts 35°
2026-04-22 14:09 51.44792 5.37204 80 ft 128 kts 35°
2026-04-22 14:09 51.45611 5.38140 353 ft 149 kts 37°
2026-04-22 14:09 51.46468 5.39125 856 ft 156 kts 37°
2026-04-22 14:09 51.47384 5.40205 1344 ft 170 kts 37°
2026-04-22 14:10 51.48334 5.41380 2090 ft 174 kts 40°
2026-04-22 14:10 51.49354 5.42611 2541 ft 195 kts 38°
2026-04-22 14:10 51.50519 5.43982 2811 ft 220 kts 41°
2026-04-22 14:10 51.51435 5.45933 3486 ft 221 kts 71°
2026-04-22 14:11 51.51436 5.48368 4203 ft 227 kts 109°
2026-04-22 14:11 51.50829 5.50677 5136 ft 218 kts 108°
2026-04-22 14:11 51.50350 5.52976 5910 ft 220 kts 107°
2026-04-22 14:11 51.49891 5.55330 6539 ft 225 kts 107°
2026-04-22 14:12 51.49431 5.57742 7257 ft 226 kts 104°
2026-04-22 14:12 51.49057 5.60309 7549 ft 248 kts 102°
2026-04-22 14:12 51.48686 5.63100 8053 ft 259 kts 103°
2026-04-22 14:12 51.47900 5.65709 8691 ft 266 kts 130°
2026-04-22 14:13 51.46499 5.67683 9478 ft 270 kts 141°
2026-04-22 14:13 51.44927 5.69384 10200 ft 275 kts 144°
2026-04-22 14:13 51.43287 5.71067 10722 ft 287 kts 144°
2026-04-22 14:13 51.41537 5.72861 10879 ft 310 kts 144°
2026-04-22 14:14 51.39667 5.74795 11058 ft 330 kts 144°
2026-04-22 14:14 51.37703 5.76839 11444 ft 342 kts 144°
2026-04-22 14:14 51.35720 5.78909 12048 ft 346 kts 144°
2026-04-22 14:14 51.33694 5.81031 12730 ft 350 kts 143°
2026-04-22 14:15 51.31651 5.83176 13400 ft 354 kts 143°
2026-04-22 14:15 51.29584 5.85347 14076 ft 358 kts 143°
2026-04-22 14:15 51.27486 5.87548 14702 ft 362 kts 143°
2026-04-22 14:15 51.25334 5.89683 15354 ft 368 kts 150°
2026-04-22 14:16 51.22834 5.90794 15986 ft 380 kts 169°
2026-04-22 14:16 51.20198 5.91275 16654 ft 384 kts 169°
2026-04-22 14:16 51.17528 5.91781 17272 ft 388 kts 169°
2026-04-22 14:16 51.14836 5.92326 17904 ft 392 kts 168°
2026-04-22 14:17 51.12115 5.92898 18536 ft 396 kts 168°
2026-04-22 14:17 51.09356 5.93342 19076 ft 402 kts 174°
2026-04-22 14:17 51.06523 5.93176 19625 ft 409 kts 180°
2026-04-22 14:17 51.03679 5.92805 20192 ft 412 kts 181°
2026-04-22 14:18 51.00841 5.92407 20727 ft 415 kts 181°
2026-04-22 14:18 50.97952 5.92002 21253 ft 419 kts 181°
2026-04-22 14:18 50.95037 5.91603 21781 ft 422 kts 181°
2026-04-22 14:18 50.92104 5.91213 22272 ft 425 kts 181°
2026-04-22 14:19 50.89142 5.90828 22781 ft 428 kts 181°
2026-04-22 14:19 50.86162 5.90447 23283 ft 431 kts 181°
2026-04-22 14:19 50.83157 5.90066 23777 ft 435 kts 181°
2026-04-22 14:19 50.80127 5.89684 24197 ft 438 kts 181°
2026-04-22 14:20 50.74014 5.88915 25005 ft 443 kts 182°
2026-04-22 14:20 50.70937 5.88528 25415 ft 446 kts 182°
2026-04-22 14:20 50.67833 5.88138 25798 ft 448 kts 182°
2026-04-22 14:21 50.61577 5.87354 26519 ft 454 kts 182°
2026-04-22 14:21 50.58449 5.86963 26878 ft 457 kts 183°
2026-04-22 14:22 50.52078 5.86168 27578 ft 462 kts 183°
2026-04-22 14:22 50.48866 5.85767 27917 ft 465 kts 183°
2026-04-22 14:22 50.42377 5.84961 28555 ft 470 kts 184°
2026-04-22 14:23 50.39107 5.84555 28890 ft 473 kts 184°
2026-04-22 14:23 50.35813 5.84147 29194 ft 475 kts 184°
2026-04-22 14:23 50.32504 5.83738 29494 ft 478 kts 184°
2026-04-22 14:23 50.29183 5.83327 29784 ft 480 kts 184°
2026-04-22 14:24 50.25842 5.82916 30069 ft 483 kts 184°
2026-04-22 14:24 50.22489 5.82503 30391 ft 484 kts 185°
2026-04-22 14:24 50.19139 5.82090 30764 ft 482 kts 185°
2026-04-22 14:24 50.15801 5.81680 31131 ft 481 kts 185°
2026-04-22 14:25 50.12459 5.81271 31446 ft 481 kts 185°
2026-04-22 14:25 50.09112 5.81136 31709 ft 482 kts 176°
2026-04-22 14:25 50.05782 5.81738 32017 ft 482 kts 169°
2026-04-22 14:25 50.02530 5.82989 32314 ft 482 kts 163°
2026-04-22 14:26 49.99322 5.84504 32571 ft 483 kts 162°
2026-04-22 14:26 49.96113 5.86080 32858 ft 483 kts 162°
2026-04-22 14:26 49.92909 5.87662 33187 ft 482 kts 162°
2026-04-22 14:26 49.89711 5.89226 33501 ft 482 kts 162°
2026-04-22 14:27 49.86552 5.90750 33818 ft 482 kts 162°
2026-04-22 14:27 49.83336 5.92283 34070 ft 483 kts 162°
2026-04-22 14:27 49.80117 5.93805 34312 ft 484 kts 163°
2026-04-22 14:27 49.76895 5.95319 34552 ft 484 kts 163°
2026-04-22 14:28 49.73680 5.96825 34808 ft 483 kts 163°
2026-04-22 14:28 49.70465 5.98329 35057 ft 483 kts 163°
2026-04-22 14:28 49.67251 5.99831 35260 ft 483 kts 163°
2026-04-22 14:29 49.60762 6.02860 35267 ft 487 kts 163°
2026-04-22 14:29 49.54290 6.05873 35253 ft 484 kts 163°
2026-04-22 14:30 49.47865 6.08858 35258 ft 481 kts 163°
2026-04-22 14:30 49.41473 6.11818 35256 ft 479 kts 163°
2026-04-22 14:31 49.35094 6.14764 35247 ft 478 kts 163°
2026-04-22 14:31 49.28716 6.17702 35247 ft 479 kts 164°
2026-04-22 14:32 49.22312 6.20644 35246 ft 481 kts 164°
2026-04-22 14:32 49.15883 6.23590 35249 ft 484 kts 163°
2026-04-22 14:33 49.09456 6.26526 35235 ft 486 kts 164°
2026-04-22 14:33 49.02972 6.29481 35243 ft 487 kts 164°
2026-04-22 14:34 48.96460 6.32440 35239 ft 489 kts 164°
2026-04-22 14:34 48.89919 6.35405 35232 ft 490 kts 164°
2026-04-22 14:35 48.83381 6.38360 35238 ft 490 kts 164°
2026-04-22 14:35 48.76840 6.41308 35236 ft 490 kts 164°
2026-04-22 14:36 48.70296 6.44250 35232 ft 490 kts 165°
2026-04-22 14:36 48.63763 6.47178 35235 ft 489 kts 165°
2026-04-22 14:37 48.57281 6.50076 35229 ft 489 kts 165°
2026-04-22 14:37 48.50763 6.52983 35222 ft 488 kts 164°
2026-04-22 14:38 48.44244 6.55882 35199 ft 488 kts 165°
2026-04-22 14:38 48.37743 6.58766 35203 ft 487 kts 165°
2026-04-22 14:39 48.31240 6.61643 35203 ft 486 kts 165°
2026-04-22 14:39 48.24725 6.64518 35198 ft 486 kts 165°
2026-04-22 14:40 48.15501 6.70530 35201 ft 488 kts 140°
2026-04-22 14:40 48.13048 6.74045 35192 ft 488 kts 128°
2026-04-22 14:40 48.10973 6.78062 35191 ft 488 kts 130°
2026-04-22 14:41 48.05895 6.84825 35216 ft 491 kts 141°
2026-04-22 14:41 48.00556 6.91224 35179 ft 493 kts 141°
2026-04-22 14:42 47.95274 6.97656 35192 ft 493 kts 140°
2026-04-22 14:42 47.89976 7.04206 35187 ft 494 kts 140°
2026-04-22 14:43 47.84688 7.10766 35182 ft 495 kts 140°
2026-04-22 14:43 47.79391 7.17317 35195 ft 495 kts 140°
2026-04-22 14:44 47.74075 7.23868 35189 ft 497 kts 140°
2026-04-22 14:44 47.68750 7.30409 35188 ft 498 kts 140°
2026-04-22 14:45 47.63401 7.36960 35180 ft 498 kts 140°
2026-04-22 14:45 47.58080 7.43460 35180 ft 498 kts 140°
2026-04-22 14:46 47.52733 7.49973 35167 ft 498 kts 141°
2026-04-22 14:46 47.47381 7.56476 35175 ft 498 kts 140°
2026-04-22 14:47 47.42019 7.62973 35169 ft 498 kts 141°
2026-04-22 14:47 47.36685 7.69418 35167 ft 499 kts 141°
2026-04-22 14:48 47.31305 7.75901 35142 ft 499 kts 141°
2026-04-22 14:48 47.25928 7.82363 35164 ft 500 kts 141°
2026-04-22 14:49 47.20537 7.88824 35174 ft 500 kts 141°
2026-04-22 14:49 47.15123 7.95295 35166 ft 501 kts 141°
2026-04-22 14:50 47.09695 8.01766 35138 ft 502 kts 141°
2026-04-22 14:50 47.04257 8.08231 35153 ft 504 kts 141°
2026-04-22 14:51 46.98826 8.14671 35160 ft 507 kts 141°
2026-04-22 14:51 46.93304 8.21184 35182 ft 509 kts 143°
2026-04-22 14:52 46.90346 8.24024 35140 ft 507 kts 154°
2026-04-22 14:52 46.87165 8.26174 35166 ft 505 kts 159°
2026-04-22 14:52 46.80667 8.30173 35165 ft 507 kts 160°
2026-04-22 14:53 46.75245 8.33509 35136 ft 509 kts 160°
2026-04-22 14:53 46.68726 8.37594 35121 ft 511 kts 159°
2026-04-22 14:54 46.61126 8.42401 35128 ft 512 kts 159°
2026-04-22 14:54 46.55649 8.45866 35140 ft 512 kts 159°
2026-04-22 14:55 46.49110 8.49987 35144 ft 513 kts 159°
2026-04-22 14:55 46.42562 8.54096 35147 ft 513 kts 159°
2026-04-22 14:56 46.36052 8.58168 35133 ft 512 kts 159°
2026-04-22 14:56 46.29507 8.62251 35138 ft 511 kts 159°
2026-04-22 14:57 46.22991 8.66310 35118 ft 509 kts 160°
2026-04-22 14:57 46.16498 8.70343 35140 ft 507 kts 160°
2026-04-22 14:58 46.10007 8.74360 35120 ft 508 kts 160°
2026-04-22 14:58 46.03516 8.78369 35138 ft 508 kts 160°
2026-04-22 14:59 45.97019 8.82373 35131 ft 507 kts 160°
2026-04-22 14:59 45.90519 8.86366 35124 ft 507 kts 159°
2026-04-22 15:00 45.84030 8.90346 35140 ft 507 kts 160°
2026-04-22 15:00 45.77572 8.94296 35147 ft 508 kts 160°
2026-04-22 15:01 45.71059 8.98269 35151 ft 509 kts 160°
2026-04-22 15:01 45.64755 9.02949 35201 ft 515 kts 146°
2026-04-22 15:02 45.59487 9.09897 35157 ft 517 kts 131°
2026-04-22 15:02 45.54709 9.17591 35157 ft 518 kts 131°
2026-04-22 15:03 45.49892 9.25288 35128 ft 520 kts 131°
2026-04-22 15:03 45.47451 9.29136 34597 ft 527 kts 132°
2026-04-22 15:03 45.44986 9.32995 33981 ft 527 kts 132°
2026-04-22 15:04 45.42517 9.36843 33312 ft 527 kts 133°
2026-04-22 15:04 45.40064 9.40658 32620 ft 528 kts 133°
2026-04-22 15:04 45.37583 9.44512 31903 ft 529 kts 134°
2026-04-22 15:04 45.35090 9.48381 31213 ft 531 kts 134°
2026-04-22 15:05 45.32593 9.52252 30676 ft 529 kts 134°
2026-04-22 15:05 45.30118 9.56087 30143 ft 527 kts 134°
2026-04-22 15:05 45.27643 9.59916 29575 ft 523 kts 134°
2026-04-22 15:05 45.25194 9.63700 29039 ft 519 kts 134°
2026-04-22 15:06 45.22753 9.67465 28563 ft 515 kts 134°
2026-04-22 15:06 45.20335 9.71192 28042 ft 511 kts 134°
2026-04-22 15:06 45.17941 9.74875 27532 ft 506 kts 134°
2026-04-22 15:06 45.15560 9.78534 26991 ft 502 kts 134°
2026-04-22 15:07 45.13198 9.82159 26502 ft 499 kts 134°
2026-04-22 15:07 45.10851 9.85756 26023 ft 495 kts 134°
2026-04-22 15:07 45.08525 9.89316 25556 ft 492 kts 134°
2026-04-22 15:07 45.06236 9.92815 25067 ft 489 kts 134°
2026-04-22 15:08 45.03902 9.96378 24563 ft 487 kts 134°
2026-04-22 15:08 45.01637 9.99832 24110 ft 484 kts 133°
2026-04-22 15:08 44.99351 10.03313 23575 ft 482 kts 133°
2026-04-22 15:08 44.97079 10.06767 23020 ft 478 kts 133°
2026-04-22 15:09 44.94829 10.10187 22501 ft 473 kts 133°
2026-04-22 15:09 44.92603 10.13565 21996 ft 467 kts 133°
2026-04-22 15:09 44.90402 10.16903 21529 ft 462 kts 133°
2026-04-22 15:09 44.88217 10.20210 21072 ft 456 kts 133°
2026-04-22 15:10 44.86051 10.23448 20612 ft 451 kts 136°
2026-04-22 15:10 44.83529 10.25965 20146 ft 440 kts 157°
2026-04-22 15:10 44.80658 10.27182 19765 ft 423 kts 174°
2026-04-22 15:10 44.77795 10.27402 19522 ft 405 kts 188°
2026-04-22 15:11 44.75072 10.26713 19203 ft 391 kts 198°
2026-04-22 15:11 44.72467 10.25700 18797 ft 387 kts 200°
2026-04-22 15:11 44.69883 10.24647 18375 ft 386 kts 200°
2026-04-22 15:11 44.67311 10.23606 17899 ft 384 kts 200°
2026-04-22 15:12 44.64739 10.22584 17436 ft 382 kts 199°
2026-04-22 15:12 44.62184 10.21586 17011 ft 380 kts 199°
2026-04-22 15:12 44.59639 10.20604 16568 ft 378 kts 199°
2026-04-22 15:12 44.57117 10.19636 16146 ft 375 kts 198°
2026-04-22 15:13 44.54608 10.18674 15730 ft 372 kts 198°
2026-04-22 15:13 44.52121 10.17723 15322 ft 370 kts 199°
2026-04-22 15:13 44.49639 10.16775 14909 ft 369 kts 198°
2026-04-22 15:13 44.47161 10.15841 14533 ft 366 kts 197°
2026-04-22 15:14 44.44747 10.14976 14199 ft 362 kts 197°
2026-04-22 15:14 44.42305 10.14118 13805 ft 361 kts 197°
2026-04-22 15:14 44.39871 10.13265 13359 ft 359 kts 196°
2026-04-22 15:14 44.37451 10.12414 12925 ft 358 kts 196°
2026-04-22 15:15 44.35044 10.11565 12513 ft 356 kts 196°
2026-04-22 15:15 44.32651 10.10721 12078 ft 352 kts 196°
2026-04-22 15:15 44.30290 10.09886 11702 ft 349 kts 196°
2026-04-22 15:15 44.27946 10.09058 11299 ft 347 kts 195°
2026-04-22 15:16 44.25601 10.08230 10912 ft 346 kts 196°
2026-04-22 15:16 44.23291 10.07474 10765 ft 336 kts 189°
2026-04-22 15:16 44.20989 10.07435 10676 ft 327 kts 173°
2026-04-22 15:16 44.18782 10.07955 10579 ft 319 kts 169°
2026-04-22 15:17 44.16622 10.08545 10435 ft 313 kts 168°
2026-04-22 15:17 44.14512 10.09137 10318 ft 306 kts 169°
2026-04-22 15:17 44.12461 10.09708 10197 ft 301 kts 169°
2026-04-22 15:17 44.10418 10.10271 10014 ft 297 kts 169°
2026-04-22 15:18 44.08391 10.10824 9717 ft 297 kts 169°
2026-04-22 15:18 44.06367 10.11372 9432 ft 296 kts 169°
2026-04-22 15:18 44.04351 10.11916 9144 ft 295 kts 169°
2026-04-22 15:18 44.02343 10.12454 8862 ft 294 kts 169°
2026-04-22 15:19 44.00344 10.12988 8571 ft 290 kts 169°
2026-04-22 15:19 43.98381 10.13512 8271 ft 284 kts 169°
2026-04-22 15:19 43.96461 10.14022 8011 ft 279 kts 168°
2026-04-22 15:19 43.94569 10.14525 7735 ft 274 kts 168°
2026-04-22 15:20 43.93336 10.14853 7564 ft 271 kts 168°
2026-04-22 15:20 43.90885 10.15503 7201 ft 266 kts 167°
2026-04-22 15:20 43.89070 10.15985 6953 ft 266 kts 167°
2026-04-22 15:20 43.87252 10.16468 6695 ft 266 kts 167°
2026-04-22 15:21 43.85423 10.16953 6424 ft 267 kts 167°
2026-04-22 15:21 43.83597 10.17437 6144 ft 267 kts 167°
2026-04-22 15:21 43.81794 10.17914 5877 ft 268 kts 167°
2026-04-22 15:21 43.79963 10.18399 5607 ft 268 kts 167°
2026-04-22 15:22 43.78132 10.18883 5338 ft 268 kts 167°
2026-04-22 15:22 43.76304 10.19365 5069 ft 267 kts 167°
2026-04-22 15:22 43.74488 10.19844 4812 ft 265 kts 167°
2026-04-22 15:22 43.72680 10.20321 4493 ft 265 kts 166°
2026-04-22 15:23 43.70873 10.20793 4288 ft 261 kts 164°
2026-04-22 15:23 43.69112 10.21256 4166 ft 254 kts 164°
2026-04-22 15:23 43.67395 10.21709 4037 ft 248 kts 163°
2026-04-22 15:23 43.65727 10.22149 3938 ft 241 kts 163°
2026-04-22 15:24 43.64099 10.22578 3801 ft 236 kts 163°
2026-04-22 15:24 43.62491 10.23002 3581 ft 234 kts 163°
2026-04-22 15:24 43.60918 10.23416 3381 ft 227 kts 163°
2026-04-22 15:24 43.59382 10.23827 3127 ft 220 kts 160°
2026-04-22 15:25 43.58137 10.24785 2884 ft 196 kts 122°
2026-04-22 15:25 43.57823 10.26423 2718 ft 169 kts 75°
2026-04-22 15:25 43.58354 10.27789 2438 ft 159 kts 58°
2026-04-22 15:25 43.58909 10.29060 2137 ft 153 kts 57°
2026-04-22 15:26 43.59597 10.30082 1937 ft 140 kts 47°
2026-04-22 15:26 43.60291 10.30968 1769 ft 134 kts 45°
2026-04-22 15:26 43.61003 10.31767 1605 ft 127 kts 43°
2026-04-22 15:26 43.61689 10.32491 1421 ft 123 kts 42°
2026-04-22 15:27 43.62372 10.33203 1263 ft 125 kts 42°
2026-04-22 15:27 43.63093 10.33952 1089 ft 136 kts 44°
2026-04-22 15:27 43.63879 10.34766 913 ft 143 kts 42°
2026-04-22 15:27 43.64654 10.35564 700 ft 135 kts 41°
2026-04-22 15:28 43.65380 10.36320 530 ft 127 kts 41°
2026-04-22 15:28 43.66085 10.37039 417 ft 125 kts 39°
2026-04-22 15:28 43.66797 10.37776 239 ft 132 kts 42°
2026-04-22 15:28 43.67546 10.38555 40 ft 133 kts 43°
2026-04-22 15:29 43.68201 10.39256 12 ft 94 kts 39°
2026-04-22 15:29 43.68624 10.39682 12 ft 65 kts 37°
2026-04-22 15:29 43.68880 10.39943 11 ft 35 kts 38°
2026-04-22 15:30 43.69088 10.40160 10 ft 30 kts 35°
2026-04-22 15:30 43.69250 10.40311 9 ft 11 kts
2026-04-22 15:30 43.69305 10.40251 11 ft 10 kts 306°
2026-04-22 15:30 43.69347 10.40172 16 ft 10 kts 307°
2026-04-22 15:31 43.69415 10.40100 19 ft 15 kts 345°
2026-04-22 15:31 43.69540 10.40076 14 ft 21 kts 352°
2026-04-22 15:31 43.69660 10.40048 13 ft 13 kts 338°
2026-04-22 15:31 43.69693 10.39940 13 ft 13 kts 279°
2026-04-22 15:32 43.69703 10.39873 13 ft 5 kts 295°
2026-04-22 15:32 43.69733 10.39856 13 ft 5 kts 355°
2026-04-22 15:32 43.69755 10.39859 13 ft 0 kts